Location: ShareBrained
(45.5589°N, 122.6491°W)
Time: 11:41:05
(UTC-07:00)

NOAA 19 - Visible Passes

Search period start: 13 April 2021 00:00
Search period end: 23 April 2021 00:00
Orbit: 841 x 860 km, 99.2° (Epoch: 13 April)

Date Brightness Start Highest point End Pass type
(mag) Time Alt. Az. Time Alt. Az. Time Alt. Az.
13 Apr 8.3 21:00:51 10° WSW 21:02:43 12° W 21:04:37 10° WNW visible
14 Apr 8.1 20:47:41 10° WSW 20:50:47 15° W 20:53:54 10° NW visible
15 Apr 7.9 20:35:01 10° SW 20:38:52 19° W 20:42:45 10° NW visible
21 Apr 8.6 21:08:36 10° W 21:09:25 10° W 21:10:14 10° WNW visible
22 Apr 8.2 20:54:48 10° WSW 20:57:28 14° W 21:00:10 10° WNW visible
